User: anonymous   Login
Location: Unspecified
(0.0000°N, 0.0000°E)
Time: 18:54:41
(UTC+00:00)
Language:

PICSAT - Orbit

View from above orbital plane
View from above orbital plane
View from above satellite
View from above satellite

Ground track
Ground track

The orbit data is extracted from the following two-line orbital elements,

1 43132U 18004X   19340.90604494 +.00000957 +00000-0 +42520-4 0  9997
2 43132 097.4712 048.2481 0010100 023.1987 336.9704 15.23945010105574
Epoch (UTC): 06 December 2019 21:44:42
Eccentricity: 0.0010100
inclination: 97.4712°
perigee height: 487 km
apogee height: 501 km
right ascension of ascending node: 48.2481°
argument of perigee: 23.1987°
revolutions per day: 15.23945010
mean anomaly at epoch: 336.9704°
orbit number at epoch: 10557

The dashed part of the orbit path shows where the satellite is in the earth's shadow,  

DLR